GW7729 Weather Reports


time (UTC)temp
C
wind
direction
speed
KPH
gust
KPH
rain 1hr
cm
rain 24hr
cm
rain mn
cm
humidity
%
barometer
mb
20260906093615 22 0.0 0.0 0.00 0.71 0.18 94 1011.6
20260906092435 23 113 1.6 1.6 0.00 0.71 0.18 95 1011.7
20260906091215 23 0.0 1.6 0.00 0.71 0.18 95 1011.7
20260906090015 23 358 3.2 4.8 0.03 0.71 0.18 96 1011.6
20260906084855 23 0.0 1.6 0.03 0.71 0.18 95 1011.5
20260906083615 23 0.0 0.0 0.03 0.71 0.18 95 1011.4
20260906082455 23 328 0.0 1.6 0.03 0.71 0.18 95 1011.2
20260906081214 23 0.0 1.6 0.03 0.71 0.18 94 1011.3
20260906080017 23 328 0.0 1.6 0.00 0.69 0.15 94 1011.4
20260906074816 23 0.0 0.0 0.00 0.69 0.15 94 1011.2
20260906073617 23 328 0.0 1.6 0.03 0.69 0.15 94 1011.2
20260906072417 23 343 1.6 4.8 0.03 0.69 0.15 94 1011.2
20260906071217 23 340 3.2 8.0 0.03 0.69 0.15 94 1011.4
20260906070016 23 327 6.4 9.7 0.03 0.69 0.15 94 1011.4
20260906064816 23 339 4.8 8.0 0.05 0.69 0.15 94 1011.6
20260906063616 23 334 6.4 9.7 0.03 0.66 0.13 94 1011.7
20260906062416 23 341 4.8 6.4 0.03 0.66 0.13 95 1011.8
20260906061217 23 343 6.4 8.0 0.03 0.66 0.13 95 1011.9
20260906060016 23 323 3.2 4.8 0.05 0.66 0.13 95 1011.9
20260906054837 23 322 1.6 6.4 0.03 0.64 0.10 95 1012.0
20260906053636 23 335 3.2 6.4 0.05 0.64 0.10 96 1012.2
20260906052457 22 224 0.0 1.6 0.05 0.64 0.10 94 1012.3
20260906051216 23 0.0 1.6 0.08 0.64 0.10 94 1012.3
20260906050016 23 75 0.0 1.6 0.08 0.61 0.08 94 1012.4
20260906044836 23 75 0.0 3.2 0.10 0.61 0.08 93 1012.4
20260906043616 23 318 0.0 1.6 0.10 0.58 0.05 94 1012.4
20260906042416 23 300 0.0 3.2 0.15 0.58 0.05 94 1012.3
20260906041216 23 333 1.6 4.8 0.25 0.56 0.03 92 1012.3
20260906040016 23 82 0.0 1.6 0.46 0.53 0.53 92 1012.2
20260906034815 23 183 1.6 4.8 0.51 0.51 0.51 93 1012.4
20260906033615 23 171 3.2 4.8 0.48 0.48 0.48 92 1012.6
20260906032437 23 4 0.0 3.2 0.43 0.43 0.43 90 1012.6
20260906031217 24 3 1.6 3.2 0.30 0.30 0.30 89 1012.7
20260906030014 25 110 3.2 4.8 0.08 0.08 0.08 83 1012.8
20260906024836 25 312 0.0 1.6 0.00 0.00 0.00 82 1012.9
20260906023617 25 3 1.6 4.8 0.00 0.00 0.00 83 1012.8
20260906022417 25 150 0.0 1.6 0.00 0.00 0.00 82 1012.5
20260906021237 26 0.0 0.0 0.00 0.00 0.00 81 1012.5
20260906020017 26 0.0 1.6 0.00 0.00 0.00 81 1012.5
20260906014816 26 0.0 0.0 0.00 0.00 0.00 82 1012.3
20260906013616 26 0.0 1.6 0.00 0.00 0.00 81 1012.2
20260906012417 26 0.0 1.6 0.00 0.00 0.00 81 1012.3
20260906011216 26 150 0.0 4.8 0.00 0.00 0.00 81 1012.1
20260906010017 26 17 1.6 6.4 0.00 0.00 0.00 81 1011.6
20260906004816 26 41 0.0 3.2 0.00 0.00 0.00 81 1011.3
20260906003616 26 23 0.0 8.0 0.00 0.00 0.00 81 1011.4
20260906002416 26 40 1.6 3.2 0.00 0.00 0.00 80 1011.4
20260906001216 26 219 1.6 3.2 0.00 0.00 0.00 82 1011.5
20260906000016 27 118 1.6 3.2 0.00 0.00 0.00 76 1011.5
20260905234816 28 328 0.0 3.2 0.00 0.00 0.00 71 1011.5
20260905233636 28 104 1.6 4.8 0.00 0.00 0.00 66 1011.4
20260905232416 28 304 4.8 9.7 0.00 0.00 0.00 66 1011.4
20260905231217 28 306 1.6 4.8 0.00 0.00 0.00 67 1011.3
20260905230016 29 315 4.8 6.4 0.00 0.00 0.00 67 1011.1
20260905224816 29 307 1.6 4.8 0.00 0.00 0.00 64 1011.0
20260905223616 29 333 1.6 4.8 0.00 0.00 0.00 65 1011.2
20260905222416 30 359 6.4 19.3 0.00 0.00 0.00 63 1010.8
20260905221216 31 1 9.7 29.0 0.00 0.00 0.00 62 1010.9
20260905220016 31 356 8.0 24.1 0.00 0.00 0.00 60 1010.7
20260905214816 35 354 6.4 17.7 0.00 0.00 0.00 49 1010.6
20260905213616 37 87 1.6 6.4 0.00 0.00 0.00 47 1010.2
20260905212416 37 66 1.6 6.4 0.00 0.00 0.00 47 1010.4
20260905211216 37 155 1.6 6.4 0.00 0.00 0.00 45 1010.5
20260905210016 37 70 1.6 11.3 0.00 0.00 0.00 45 1010.6
20260905204816 37 159 1.6 4.8 0.00 0.00 0.00 47 1010.6
20260905203616 36 159 3.2 11.3 0.00 0.00 0.00 47 1010.6
20260905202416 37 274 3.2 6.4 0.00 0.00 0.00 45 1010.5
20260905201216 36 309 1.6 8.0 0.00 0.00 0.00 48 1010.6
20260905200016 36 139 3.2 6.4 0.00 0.00 0.00 47 1010.8
20260905194816 36 1 1.6 3.2 0.00 0.00 0.00 49 1010.9
20260905193616 36 338 3.2 6.4 0.00 0.00 0.00 48 1011.1
20260905192416 35 223 1.6 6.4 0.00 0.00 0.00 50 1011.2
20260905191216 35 8 8.0 11.3 0.00 0.00 0.00 52 1011.3
20260905190016 35 56 0.0 1.6 0.00 0.00 0.00 55 1011.5
20260905184816 35 102 1.6 8.0 0.00 0.00 0.00 54 1011.6
20260905183616 35 340 4.8 6.4 0.00 0.00 0.00 53 1011.9
20260905182415 36 353 3.2 12.9 0.00 0.00 0.00 51 1012.0
20260905181236 36 118 1.6 4.8 0.00 0.00 0.00 51 1012.2
20260905180015 35 96 1.6 4.8 0.00 0.00 0.00 53 1012.4
20260905174816 35 150 1.6 11.3 0.00 0.00 0.00 52 1012.5
20260905173616 35 357 1.6 6.4 0.00 0.00 0.00 54 1012.8
20260905172435 35 159 3.2 6.4 0.00 0.00 0.00 53 1012.8
20260905171216 35 210 1.6 6.4 0.00 0.00 0.00 52 1012.9
20260905170016 34 18 1.6 8.0 0.00 0.00 0.00 54 1013.2
20260905164815 35 314 1.6 6.4 0.00 0.00 0.00 56 1013.5
20260905163615 34 326 3.2 6.4 0.00 0.00 0.00 56 1013.7
20260905162416 34 244 1.6 6.4 0.00 0.00 0.00 56 1013.9
20260905161215 33 334 1.6 6.4 0.00 0.00 0.00 56 1014.1
20260905160016 32 171 1.6 6.4 0.00 0.00 0.00 62 1014.2
20260905154815 32 1 3.2 9.7 0.00 0.00 0.00 62 1014.3
20260905153615 32 320 1.6 4.8 0.00 0.00 0.00 64 1014.4
20260905152415 32 159 1.6 6.4 0.00 0.00 0.00 65 1014.4
20260905151215 31 104 0.0 3.2 0.00 0.00 0.00 70 1014.5
20260905150015 31 303 3.2 6.4 0.00 0.00 0.00 73 1014.7
20260905144815 30 26 1.6 3.2 0.00 0.00 0.00 73 1014.9
20260905143615 29 336 1.6 6.4 0.00 0.00 0.00 76 1015.0
20260905142415 28 343 3.2 4.8 0.00 0.00 0.00 79 1015.0
20260905141235 27 18 1.6 6.4 0.00 0.00 0.00 84 1015.1
20260905140035 26 103 0.0 4.8 0.00 0.00 0.00 89 1015.2
20260905134835 26 93 0.0 4.8 0.00 0.00 0.00 91 1015.0
20260905133615 25 135 0.0 3.2 0.00 0.00 0.00 93 1015.1
20260905132415 24 149 1.6 4.8 0.00 0.00 0.00 94 1015.0
20260905131215 24 162 1.6 4.8 0.00 0.00 0.00 95 1015.2
20260905130035 23 138 1.6 3.2 0.00 0.00 0.00 96 1015.2
20260905124815 23 114 0.0 3.2 0.00 0.00 0.00 96 1015.3
20260905123615 22 114 1.6 3.2 0.00 0.00 0.00 96 1015.3
20260905122415 22 114 0.0 1.6 0.00 0.00 0.00 96 1015.0
20260905121235 22 114 1.6 3.2 0.00 0.00 0.00 96 1014.9
20260905120015 22 114 0.0 1.6 0.00 0.00 0.00 96 1014.9
20260905114815 22 114 0.0 1.6 0.00 0.00 0.00 95 1014.9
20260905113615 22 0.0 1.6 0.00 0.00 0.00 95 1014.9
20260905112415 22 114 0.0 1.6 0.00 0.00 0.00 95 1015.0
20260905111215 22 0.0 0.0 0.00 0.00 0.00 95 1014.9
20260905110015 22 114 0.0 1.6 0.00 0.00 0.00 95 1014.6
20260905104815 22 0.0 0.0 0.00 0.00 0.00 94 1014.5
20260905103615 22 0.0 0.0 0.00 0.00 0.00 94 1014.4
20260905102415 22 0.0 0.0 0.00 0.00 0.00 94 1014.4
20260905101215 22 0.0 0.0 0.00 0.00 0.00 94 1014.2
20260905100015 22 114 0.0 1.6 0.00 0.00 0.00 93 1014.1
20260905094815 22 0.0 0.0 0.00 0.00 0.00 94 1014.1